Theta_e
324 327 327 329 329 326 324 324 323 323 325 325 322 323 334 340 323 320 347 355 333 333 345 343 342 341 340 344 344 342 343 344 346 347 348 349 348 347 348 349 350 350 348 350 352 347 345 345 346 347 348 350 352 353 354 354 353 352 350 345 341 340 338 339 339 334 332 336 335 334 338 339 338 338 337 333 328 328 331 333 333 335 334 331 330 330 331
324 324 324 327 325 324 324 324 325 324 325 326 322 327 338 337 329 335 351 350 341 338 337 337 338 339 341 344 343 343 345 346 348 350 350 350 348 347 349 349 350 351 349 349 350 349 345 343 345 347 347 349 351 351 353 354 352 352 348 343 341 339 338 340 338 332 334 337 333 333 338 339 338 338 336 332 329 331 334 334 334 336 334 332 331 331 331
320 322 326 326 323 325 322 321 327 325 323 325 322 329 337 331 331 343 346 342 342 340 341 344 342 343 347 346 344 346 347 348 349 350 350 350 349 349 350 353 352 351 349 347 350 353 348 344 345 346 347 349 349 350 352 352 352 350 346 343 341 338 338 339 335 332 335 335 331 333 338 337 337 336 332 328 329 333 336 335 335 337 335 332 331 331 331
317 321 324 324 325 325 319 319 324 323 323 326 327 336 341 333 336 346 340 334 336 342 351 352 345 345 345 342 344 346 345 346 350 351 351 352 353 355 356 357 355 353 353 354 357 355 347 344 346 346 347 349 349 350 351 350 350 348 345 343 340 338 339 337 332 333 334 330 328 333 337 337 337 336 330 326 328 334 337 336 336 336 334 332 332 332 332
317 323 324 325 323 318 319 329 335 331 333 335 335 342 345 344 350 350 338 335 341 348 352 349 344 345 342 339 343 345 346 348 349 351 355 356 359 362 364 364 365 365 367 364 357 348 343 345 348 347 348 349 349 350 350 349 348 347 344 342 339 338 339 336 333 333 330 329 331 336 338 337 337 335 331 328 331 336 337 336 336 336 333 332 332 332 332
318 327 327 323 318 316 327 348 348 338 338 337 336 339 341 345 353 350 343 345 351 349 348 348 349 348 347 347 348 349 351 352 352 354 359 362 365 369 372 374 373 373 371 361 350 346 345 345 346 348 349 350 349 349 349 348 347 346 343 340 339 339 339 336 334 332 329 330 335 338 338 338 337 335 331 330 333 337 337 336 336 335 333 333 332 332 332
324 331 326 316 316 324 344 354 343 337 338 338 341 342 341 344 348 349 349 349 350 348 345 347 350 350 353 357 356 356 354 354 357 359 361 367 371 373 378 382 383 382 377 363 349 348 350 346 346 348 349 349 347 347 348 347 345 344 342 340 339 339 339 336 334 331 329 331 335 337 338 337 335 334 332 331 333 336 336 336 336 336 334 333 333 333 332
326 325 319 316 322 337 351 345 337 340 340 338 340 337 337 342 345 347 348 345 346 347 341 342 344 344 348 350 349 350 349 349 354 357 361 365 366 367 373 382 388 385 375 361 351 349 350 349 348 348 348 347 346 345 345 345 344 343 341 339 338 338 338 337 334 332 332 333 335 337 337 335 334 333 333 333 334 336 336 336 336 336 335 333 333 333 333
333 330 322 324 329 333 341 342 338 339 336 336 339 334 334 343 345 345 345 341 342 344 341 341 339 337 341 342 339 342 345 348 352 349 346 352 357 361 360 355 353 352 349 350 351 350 351 350 348 348 346 345 344 342 343 342 342 341 340 339 338 338 338 337 335 334 334 335 336 336 336 335 334 334 333 334 335 336 336 336 336 336 334 334 333 333 333
341 335 322 327 328 325 336 347 345 339 332 335 342 338 338 346 348 347 346 342 341 342 340 339 338 338 340 339 340 348 350 352 356 352 348 357 367 364 351 341 340 341 345 350 351 350 351 349 347 347 345 343 342 340 340 340 340 340 340 339 338 338 338 336 336 336 336 336 336 336 335 335 335 335 334 335 336 337 337 336 336 336 335 334 333 334 334
343 336 326 330 331 330 340 350 346 339 334 338 342 334 333 345 350 347 345 340 338 339 338 339 341 340 341 340 345 353 351 348 356 364 367 369 365 353 345 344 345 346 347 349 348 348 348 345 345 345 343 342 341 339 339 340 340 339 339 339 339 339 338 337 337 338 337 336 336 336 335 336 336 336 336 336 337 337 337 337 336 336 335 334 334 335 335
344 344 334 330 333 340 348 347 340 336 337 344 341 327 328 346 352 346 345 346 345 345 344 343 342 342 345 345 344 346 348 350 355 362 366 367 362 352 346 346 346 345 346 346 344 344 345 344 344 343 342 341 340 338 339 339 339 339 338 338 339 338 337 337 338 338 337 336 337 336 336 336 336 336 337 336 337 337 336 336 336 335 335 335 335 335 335
342 341 333 328 335 346 347 341 336 336 339 346 342 331 336 349 348 342 343 345 345 345 343 341 341 342 344 344 344 345 351 356 355 354 352 350 351 349 345 344 344 343 343 343 343 342 343 343 342 341 341 341 339 339 339 338 338 339 338 338 338 337 337 337 337 337 336 336 336 336 335 336 337 337 337 336 336 335 335 335 335 335 335 334 334 334 333
342 343 340 333 337 346 339 334 337 339 339 341 339 340 346 348 343 340 338 339 341 341 343 343 344 345 347 352 358 359 358 359 359 357 352 350 350 348 344 343 343 341 340 341 341 340 341 341 341 341 341 340 339 338 338 337 338 338 337 337 337 336 337 337 337 337 336 335 336 336 337 338 339 338 338 337 336 336 336 336 336 334 333 331 332 331 331
341 348 344 332 335 343 337 338 349 349 343 343 345 347 347 344 344 342 339 340 341 340 343 345 345 349 353 358 363 364 362 363 361 357 355 356 354 349 344 342 341 340 340 339 338 338 339 339 340 340 339 338 338 338 337 337 337 337 337 336 336 337 337 337 336 336 335 335 336 337 339 341 340 340 339 337 337 337 337 336 335 332 330 329 330 331 329
343 347 344 338 343 346 337 340 351 346 340 345 349 346 343 342 344 344 342 344 343 341 345 348 348 354 360 360 362 366 368 368 365 361 357 352 347 344 343 343 342 340 338 338 338 338 338 337 337 338 337 338 338 337 336 337 337 336 336 336 336 336 336 335 336 335 335 335 336 337 338 339 339 340 340 338 337 337 336 335 333 330 328 328 329 329 328
344 344 346 348 352 348 337 335 339 336 336 340 339 338 340 343 344 345 345 346 344 344 347 350 352 361 366 365 368 371 370 368 366 362 357 348 343 343 342 342 343 341 338 338 337 335 335 336 336 336 336 337 336 335 335 335 336 336 336 335 335 335 335 335 335 335 335 336 335 336 336 336 337 339 339 339 337 335 334 333 331 328 327 326 326 327 326
343 341 344 346 343 340 334 330 330 331 332 333 332 333 336 339 340 343 345 347 347 346 347 351 356 359 362 366 368 367 366 365 361 359 357 349 342 341 341 341 342 341 339 337 336 335 335 335 335 335 335 336 336 335 334 334 334 335 334 334 335 334 335 335 335 335 336 336 334 335 336 337 339 339 339 338 336 333 333 331 328 326 326 326 326 326 326
343 344 347 344 337 335 334 330 328 329 328 328 328 330 331 332 334 338 341 345 347 348 350 356 360 359 360 364 366 365 367 369 368 372 375 361 344 339 340 341 341 340 339 337 336 335 334 334 335 335 335 336 336 336 336 335 334 334 334 334 335 335 335 335 335 336 337 336 335 336 336 337 337 337 337 337 335 333 331 329 326 326 327 327 326 326 328
346 346 345 341 335 336 338 333 328 327 327 327 327 328 328 328 329 331 332 333 335 339 345 351 354 355 358 363 369 373 375 374 374 378 375 360 345 341 340 340 340 339 337 336 336 335 334 335 335 335 336 337 337 337 337 337 335 335 335 335 335 335 336 335 335 335 336 335 336 336 336 336 335 335 334 334 333 331 330 328 327 327 326 326 326 328 330
344 340 339 340 337 337 337 335 333 331 328 327 328 327 327 328 330 332 332 330 328 328 332 336 337 339 344 352 362 369 373 373 375 373 360 346 340 341 341 340 339 338 336 336 336 335 334 334 335 337 338 337 335 334 334 334 334 333 333 333 334 335 334 331 329 330 333 334 335 335 334 334 332 331 330 329 328 328 328 327 327 327 327 328 329 330 331
342 339 339 340 338 337 334 331 332 332 329 328 329 329 329 330 333 336 336 336 333 328 327 331 334 333 335 341 349 359 368 372 372 364 348 337 337 341 341 339 338 337 336 336 335 334 334 335 337 339 338 334 332 331 332 331 330 328 329 331 331 330 329 325 323 327 331 333 333 332 332 330 329 327 326 325 325 326 326 327 328 328 328 329 329 328 328
342 340 343 342 338 336 334 330 330 330 328 327 328 329 329 330 331 332 331 333 334 330 327 330 333 333 334 336 342 353 359 355 349 346 341 337 338 340 340 339 338 336 336 336 336 335 335 336 338 339 336 333 332 332 331 329 328 328 328 328 326 325 326 327 327 329 331 331 331 331 330 329 328 326 325 325 325 326 326 327 328 327 327 326 325 325 324
340 338 340 338 332 328 327 328 329 328 327 327 327 326 326 325 325 326 326 325 326 327 326 327 326 326 329 331 337 348 353 345 338 338 338 338 339 340 340 339 338 337 336 336 335 335 335 337 338 336 334 333 332 331 329 328 328 329 328 327 325 325 328 331 331 331 331 331 331 329 328 327 326 326 325 325 324 323 324 324 324 324 324 323 323 322 322
337 333 330 327 326 326 325 324 325 326 326 327 328 328 328 326 323 323 324 323 324 324 326 327 324 323 326 329 332 339 344 341 338 339 340 339 339 340 340 339 338 338 337 335 334 335 335 336 336 334 333 332 330 328 329 329 329 329 328 328 328 330 332 332 332 331 332 332 330 328 327 326 325 325 326 325 323 321 320 320 321 322 322 322 321 321 320
327 325 324 323 323 325 325 323 323 323 323 323 325 328 329 328 326 323 322 322 322 322 324 328 325 322 323 326 329 332 335 335 338 341 342 340 338 338 340 340 339 338 336 334 333 333 333 334 335 333 332 330 329 329 330 330 329 329 329 328 330 334 335 334 333 332 332 332 330 328 327 326 325 325 325 324 324 321 319 319 319 319 319 318 318 317 316
324 323 324 324 323 323 324 323 322 321 320 320 322 323 323 323 323 321 320 320 321 320 322 324 324 322 321 323 326 329 330 330 333 338 340 340 340 339 339 340 340 339 335 332 331 332 332 333 333 333 332 330 330 331 331 330 331 331 329 328 331 335 337 336 334 333 333 332 330 329 327 326 325 325 324 323 323 322 321 319 317 316 315 315 314 314 313
323 323 323 323 323 322 322 321 320 319 320 319 319 319 319 319 320 320 321 322 322 321 320 320 321 322 322 322 325 328 329 328 330 333 335 338 340 340 339 339 340 339 336 331 329 330 331 330 330 330 331 331 331 331 330 329 329 329 328 329 333 336 336 335 334 334 334 333 331 331 329 327 326 325 324 323 322 321 321 319 317 315 314 313 312 311 311
321 321 322 322 322 321 320 321 321 321 320 319 318 318 319 321 322 322 322 322 323 323 321 319 319 320 321 320 322 327 330 330 330 331 333 335 337 339 340 339 339 338 336 332 330 329 329 328 327 327 327 328 328 327 326 327 328 330 331 333 335 335 333 333 333 334 333 332 331 330 330 328 326 324 323 322 321 320 319 318 316 315 314 313 312 311 311
320 320 320 321 321 320 322 323 323 322 322 321 321 321 321 322 324 324 323 323 324 324 322 319 319 320 319 318 320 323 326 327 328 330 332 334 336 337 337 338 338 338 336 334 332 331 330 329 328 328 328 329 328 326 327 330 333 334 334 333 333 332 332 333 333 332 332 332 331 330 329 329 327 325 323 322 321 320 319 318 317 316 314 313 312 312 312
320 320 320 321 322 322 325 326 325 324 324 324 323 323 323 323 324 325 325 325 325 324 323 322 322 321 320 319 320 321 321 324 327 330 331 334 335 335 336 337 338 338 336 334 333 331 330 329 330 330 331 332 331 330 331 333 333 332 331 331 331 330 330 331 331 330 330 329 329 329 329 329 328 326 324 323 322 320 318 318 317 317 315 313 313 314 314
321 321 322 323 324 324 325 327 327 326 326 325 325 324 324 323 322 323 325 325 325 324 324 325 324 322 320 320 321 321 320 322 325 329 331 332 334 334 335 336 337 337 335 333 333 331 330 329 329 329 330 331 330 329 329 330 330 329 329 330 330 330 329 329 330 329 329 328 329 328 329 329 328 327 325 323 322 320 319 318 318 317 315 315 315 315 314
323 324 323 323 323 324 324 325 326 326 326 325 324 325 324 323 322 323 324 325 325 326 327 325 322 321 320 320 321 320 320 321 324 326 328 330 332 333 334 334 335 335 333 332 332 331 329 328 328 329 329 329 328 326 326 327 329 329 329 330 330 330 330 330 330 329 329 329 329 328 328 327 327 327 325 323 322 321 320 320 319 317 316 316 316 315 315
323 323 322 322 323 323 323 324 325 325 325 324 324 325 324 322 322 324 326 326 327 328 326 323 321 320 320 320 320 319 320 324 327 328 326 327 330 331 332 332 332 332 332 331 331 329 328 328 328 328 328 328 325 324 325 328 330 330 330 330 330 330 330 330 330 330 329 328 328 328 327 325 325 325 324 323 322 321 321 321 320 318 317 316 316 316 316
321 322 322 323 324 323 323 324 325 324 324 323 323 324 324 321 320 323 325 326 326 326 324 322 322 322 320 319 319 318 319 322 325 326 326 328 329 329 329 330 330 330 329 329 329 329 328 328 327 327 327 326 325 325 327 329 330 330 330 330 330 329 329 329 329 329 328 328 327 326 325 324 323 323 323 322 321 320 321 321 320 319 318 317 317 317 315
320 322 324 324 322 322 323 324 323 323 324 323 323 324 324 321 319 320 322 323 323 324 323 323 322 321 320 319 319 319 319 321 323 326 328 329 329 328 327 327 327 327 326 327 327 328 328 327 327 327 327 327 327 327 328 328 329 330 329 329 328 328 327 327 328 328 327 327 326 325 324 323 323 322 322 321 320 319 320 320 320 320 319 319 318 317 314
319 321 324 324 320 319 320 319 319 320 322 321 321 322 323 320 319 320 321 321 322 323 323 323 322 321 321 321 321 321 322 323 325 328 329 328 328 328 327 326 326 326 325 326 327 327 327 328 328 327 327 327 328 328 327 328 328 328 328 327 327 326 326 326 326 326 326 326 325 324 322 322 322 321 320 320 319 318 318 319 319 319 319 319 318 316 312
318 318 320 320 318 317 317 318 318 318 319 320 320 320 320 320 320 321 321 321 322 323 323 323 323 322 323 323 323 323 323 323 325 328 328 328 328 327 326 325 325 324 323 325 326 326 327 329 328 327 327 327 327 327 327 327 327 326 326 326 326 325 325 325 324 325 324 324 323 322 322 321 320 320 319 319 318 318 317 317 317 316 316 316 315 313 311
321 320 319 318 318 317 317 318 318 318 319 320 319 318 319 321 322 322 322 322 322 323 324 324 323 323 323 323 323 323 323 323 325 326 327 327 326 325 324 324 324 323 324 325 325 326 327 328 327 326 326 326 326 325 325 325 325 325 325 325 325 325 324 323 323 323 323 322 322 321 321 320 320 320 319 318 318 318 317 317 316 316 315 314 313 311 310
325 324 320 319 320 319 317 317 319 319 320 320 319 319 320 322 322 322 322 321 322 323 323 322 322 322 323 323 324 323 323 324 325 325 326 325 325 324 324 324 323 324 325 326 325 326 327 326 325 325 324 324 324 324 324 324 324 324 324 324 324 323 323 322 321 321 321 321 322 321 320 320 319 319 319 319 318 317 317 317 317 316 316 315 313 312 311
324 321 318 318 319 318 318 318 319 320 320 320 321 321 322 322 322 322 322 321 321 323 322 321 321 323 323 323 323 323 324 325 326 325 326 324 323 323 325 325 324 324 326 326 326 326 325 324 324 324 323 323 323 323 322 322 322 323 323 323 323 322 322 321 321 321 320 320 320 320 319 319 319 318 318 318 317 317 316 316 316 316 316 315 314 314 313
322 320 320 320 319 318 319 320 319 319 320 321 321 322 322 321 322 323 322 321 321 322 321 320 321 323 323 322 322 323 324 324 324 324 324 323 322 323 325 325 324 323 325 326 325 324 322 321 322 322 322 322 321 320 318 318 318 317 318 320 320 320 320 320 320 321 321 320 320 320 320 319 319 318 317 317 316 316 316 316 315 315 314 314 314 313 313
321 321 321 321 319 319 320 320 319 319 320 321 322 322 321 321 323 323 322 321 321 322 322 321 321 322 322 322 322 322 322 322 322 322 322 322 322 322 323 324 323 322 324 325 324 322 320 320 320 321 320 319 319 318 317 316 315 313 313 314 314 314 314 315 315 316 317 318 318 318 318 319 319 319 318 318 317 316 316 316 315 314 314 313 313 313 312
320 320 320 320 320 321 321 320 319 320 320 321 322 321 321 321 323 323 322 321 321 322 322 322 321 322 322 322 321 322 321 321 322 322 322 322 322 322 322 322 322 322 323 324 323 322 320 320 320 320 319 319 318 317 315 314 314 312 311 311 310 310 310 310 310 310 310 310 310 311 311 312 313 314 316 317 318 317 316 316 315 314 314 313 312 312 312
319 320 320 321 322 322 321 320 320 321 321 321 321 321 321 322 322 322 322 322 322 323 323 322 322 322 322 321 321 322 322 322 322 322 323 324 325 324 322 323 323 323 323 322 321 320 320 320 319 319 319 319 318 316 314 314 314 312 310 309 309 309 308 308 307 307 307 306 305 306 306 306 307 308 309 312 314 316 316 316 314 313 313 312 311 311 311
319 320 320 321 322 322 322 322 322 321 320 320 320 320 321 322 323 323 323 323 323 324 324 323 322 322 322 321 321 322 322 322 322 322 322 323 324 323 322 323 324 323 322 321 320 319 319 319 318 318 318 318 316 314 313 312 311 309 309 308 308 307 307 306 306 306 305 304 304 304 305 305 306 306 307 308 310 312 314 314 314 313 312 312 311 311 311
319 319 320 320 321 322 322 322 321 320 320 322 323 321 321 322 323 323 323 323 323 323 323 323 323 323 322 322 322 322 321 321 322 322 322 322 323 322 322 323 324 323 321 320 319 319 319 318 318 318 317 315 312 310 308 307 306 307 308 308 308 307 307 306 306 305 305 304 304 304 305 305 305 306 307 308 309 310 312 312 312 310 310 310 310 310 310
318 319 320 320 321 321 320 320 320 320 320 321 322 321 321 321 322 322 321 322 322 322 321 321 322 322 323 323 322 322 321 321 322 322 322 322 323 323 323 323 324 323 321 319 319 318 318 318 317 316 314 311 308 308 307 306 306 307 308 308 308 307 307 307 306 306 306 305 304 304 304 305 305 306 306 307 307 308 308 308 307 307 306 307 309 309 309
317 318 320 321 321 321 319 320 320 320 319 320 320 320 321 322 322 321 320 321 322 321 321 320 320 320 321 322 322 322 321 321 321 322 322 322 322 323 323 322 322 321 320 319 318 318 317 317 316 314 311 308 308 308 309 308 307 308 308 308 308 307 307 307 307 306 306 306 305 304 304 304 304 305 305 305 306 306 305 306 306 305 305 306 308 309 308
317 318 320 321 321 320 320 320 320 319 319 320 320 320 321 321 321 321 320 321 321 321 321 321 320 319 320 320 321 322 322 321 321 321 321 321 321 322 322 322 322 321 321 320 319 318 317 317 316 314 311 309 309 309 309 309 309 309 308 308 308 307 307 307 307 306 306 306 305 304 304 303 303 304 304 304 305 305 305 305 305 305 306 307 308 308 307
316 317 318 321 321 322 321 321 321 320 320 320 321 321 321 321 321 321 321 321 321 322 322 321 320 319 319 319 320 320 321 321 321 321 320 320 321 321 321 321 321 321 321 321 320 319 318 317 316 315 313 311 310 310 310 309 308 308 308 308 308 308 308 308 307 306 306 305 305 304 304 303 303 303 303 303 304 304 304 304 305 305 306 306 307 306 305
316 316 318 321 322 322 322 321 320 320 319 319 319 319 320 320 320 320 320 320 320 321 321 321 320 319 318 319 319 319 319 319 320 320 320 320 320 320 320 320 320 320 319 319 319 319 318 318 317 316 315 313 312 310 310 309 308 308 307 308 308 308 308 308 308 307 306 305 305 304 304 303 303 303 303 303 303 303 304 304 304 304 304 304 304 304 304
Wind_Speed
17 16 16 14 8 6 8 8 11 13 12 12 13 11 9 10 9 8 8 9 12 12 11 12 13 13 13 13 13 12 10 10 10 10 11 11 12 12 12 12 11 11 12 12 12 13 18 22 24 26 28 29 30 32 32 32 32 29 24 24 25 29 31 31 37 39 32 26 25 25 26 27 28 28 26 23 22 26 29 26 23 21 20 20 20 20 19
14 15 17 16 12 10 9 9 11 12 13 16 17 12 10 12 10 8 10 13 13 12 13 15 14 11 9 7 6 6 8 9 10 11 12 13 13 14 13 11 10 11 11 11 10 10 13 18 21 23 25 27 29 30 30 30 30 26 24 28 32 34 36 35 38 37 31 26 27 28 29 31 31 28 26 26 27 30 31 28 25 24 23 22 22 20 18
10 12 15 15 13 13 13 13 13 12 12 13 12 7 6 7 4 3 9 12 11 8 6 6 4 4 5 5 7 9 10 11 12 11 12 12 12 11 10 9 9 8 7 6 5 6 9 15 19 22 23 25 27 27 28 28 25 23 27 33 35 35 35 35 34 32 30 30 31 30 31 32 32 28 27 32 33 32 32 31 28 26 25 25 24 20 16
8 10 13 15 12 10 12 13 14 12 9 8 6 4 6 8 5 5 7 8 10 7 3 5 4 5 6 7 10 10 8 9 11 12 11 11 10 9 8 7 7 7 6 6 6 7 9 13 16 18 20 20 21 22 23 22 20 23 30 34 33 32 33 35 35 34 35 37 37 36 35 35 36 34 31 32 33 34 35 33 30 28 28 27 25 20 17
7 8 10 11 7 5 8 10 9 9 8 7 5 3 3 6 8 8 6 7 9 6 7 7 5 6 7 6 7 6 6 6 7 8 9 9 8 7 7 7 7 7 6 7 8 10 12 16 19 21 22 21 20 20 20 19 22 27 32 34 34 35 38 42 42 40 41 40 39 39 38 39 40 37 32 30 32 35 35 34 32 30 30 29 25 20 19
6 5 6 8 6 6 7 6 4 7 8 9 9 6 3 2 1 4 4 4 5 7 9 10 9 8 7 5 4 4 5 6 6 6 6 7 7 6 7 7 8 8 7 7 10 13 16 20 23 24 24 24 23 23 23 25 28 32 35 37 38 39 40 42 43 43 43 42 40 40 40 41 41 36 31 31 32 33 34 34 33 31 31 30 25 22 21
4 3 6 7 6 8 5 5 5 2 9 14 12 8 6 6 5 2 0 1 6 8 8 9 11 9 8 8 6 6 7 8 8 7 6 6 7 6 7 7 7 7 7 8 10 13 15 17 19 21 23 24 25 26 28 31 32 35 36 35 35 35 35 37 41 43 43 43 43 42 39 34 31 29 29 31 33 34 33 34 34 33 32 30 26 24 21
3 4 5 7 7 4 3 5 6 4 5 12 12 8 7 6 6 4 2 1 3 5 5 5 8 9 9 7 5 5 6 6 8 9 9 8 8 8 8 7 7 8 9 10 12 13 14 15 18 21 23 25 26 27 30 32 33 34 35 33 33 34 36 37 40 42 42 41 39 35 29 26 26 28 30 32 34 34 33 33 34 32 30 29 27 23 20
3 5 4 2 1 3 4 2 2 3 3 1 8 7 4 6 7 6 3 2 5 6 6 6 7 9 10 7 4 2 1 3 4 5 7 8 7 7 6 5 5 7 9 10 12 14 15 16 19 23 25 26 27 27 28 29 31 32 33 34 34 36 37 38 39 39 39 37 32 26 25 29 32 33 32 33 35 34 32 33 32 31 30 29 25 22 21
2 5 4 3 3 1 3 6 7 3 4 6 3 9 2 6 7 6 2 4 8 9 8 7 8 9 10 7 0 5 3 2 4 4 4 5 5 5 5 4 3 5 8 10 13 15 17 17 19 23 25 26 27 26 25 27 29 31 32 32 33 35 36 38 40 40 36 32 30 27 28 33 34 33 33 33 34 33 32 33 33 31 30 27 24 22 22
2 5 5 4 2 2 5 7 10 7 5 6 2 8 2 5 5 5 1 4 7 9 9 7 6 8 8 5 3 6 5 3 5 6 6 6 6 6 7 8 10 11 13 13 13 14 16 18 20 23 26 27 27 25 26 28 29 29 30 31 33 36 38 39 40 38 32 29 30 33 36 36 35 34 33 33 32 32 32 32 31 29 28 25 23 20 17
1 3 3 2 2 3 6 7 9 8 4 2 6 5 4 5 6 3 3 6 5 5 6 5 6 7 6 6 4 5 5 6 5 5 6 6 6 7 8 9 12 16 16 15 15 16 18 20 21 24 26 27 26 25 26 28 28 28 30 33 35 36 35 35 35 31 28 31 36 39 39 36 31 30 28 27 25 24 25 27 27 26 24 22 20 17 14
2 3 3 1 1 3 5 7 9 8 3 7 7 4 6 3 7 3 4 7 6 6 7 6 5 4 4 5 1 4 7 8 6 6 6 6 6 7 7 8 11 14 14 13 14 15 17 19 22 24 26 25 23 25 26 26 26 28 30 31 31 30 28 29 29 28 28 34 40 39 33 26 23 23 23 20 16 15 17 19 21 21 19 17 18 16 13
2 3 3 1 2 3 5 9 10 5 3 5 3 5 2 5 7 4 5 8 7 8 9 7 6 5 4 6 6 7 8 7 5 5 6 7 7 7 6 7 9 11 10 8 9 12 15 19 22 25 26 24 22 22 21 19 20 22 23 23 23 24 24 25 27 27 28 32 34 28 21 18 20 23 22 19 18 18 19 19 18 15 12 13 15 13 10
1 3 4 2 1 5 7 9 8 4 4 5 5 1 5 6 6 5 6 7 7 8 9 7 7 7 7 8 8 7 7 6 5 5 5 5 5 3 4 5 8 9 9 9 10 11 15 19 21 22 22 18 15 13 11 11 15 17 17 18 20 22 23 24 26 25 24 25 24 19 16 17 21 22 20 19 21 24 25 23 17 13 13 14 14 13 12
2 3 1 1 3 6 8 5 2 3 3 3 5 5 5 5 6 6 6 6 6 8 10 8 8 8 7 6 6 6 6 5 5 5 4 3 2 2 4 6 8 9 8 9 10 11 14 16 16 16 14 11 10 11 9 10 13 15 16 18 19 20 21 21 21 21 20 21 20 18 16 17 20 21 20 20 21 22 23 22 18 15 15 14 14 15 16
1 4 3 3 3 6 6 5 7 6 7 7 8 9 7 5 6 5 5 6 6 6 9 9 7 6 6 5 5 5 4 3 2 3 4 4 4 4 4 6 8 9 9 9 10 10 11 12 12 10 9 9 11 11 9 10 13 15 16 16 16 16 16 15 15 16 17 16 15 16 19 22 24 23 21 21 21 19 20 21 19 18 16 13 14 16 19
1 3 2 3 4 4 5 8 9 10 10 7 7 10 9 6 5 6 6 6 6 6 7 8 6 4 4 6 6 4 4 3 2 2 3 4 4 3 4 7 9 9 8 8 9 10 9 9 10 9 8 9 11 9 8 9 12 14 15 14 12 11 10 11 12 13 12 11 15 21 24 24 23 21 21 21 21 20 20 20 17 16 14 14 14 16 19
3 2 2 4 5 5 5 7 9 10 10 8 8 10 8 6 7 8 7 7 7 7 8 8 6 4 3 4 4 3 4 3 1 1 3 2 1 4 6 8 9 9 9 9 9 10 10 9 10 10 8 8 9 7 6 7 10 12 13 13 13 12 12 13 12 12 11 12 16 19 19 19 18 19 19 21 22 22 22 20 18 15 15 15 16 17 17
4 4 3 0 6 6 6 5 6 7 9 9 9 9 8 7 8 8 9 9 8 6 7 7 6 5 5 2 2 1 2 3 3 2 2 2 3 5 7 9 9 10 10 8 8 10 11 12 12 11 11 10 10 10 10 10 11 13 12 12 11 11 11 9 6 8 11 11 13 15 17 17 16 15 16 19 22 23 22 21 20 16 14 16 17 18 17
6 6 5 4 6 7 7 6 5 5 5 7 8 7 8 9 8 9 10 10 7 7 8 8 8 8 7 6 3 2 2 2 0 1 3 4 5 7 9 11 12 12 10 8 10 12 14 15 15 14 15 17 18 19 19 17 15 15 12 10 9 8 6 6 5 7 12 12 13 16 17 16 14 14 14 17 19 19 19 19 18 14 13 15 17 15 14
5 4 5 6 7 5 1 2 3 3 2 6 8 7 7 7 7 8 10 9 8 9 9 10 11 10 10 9 7 4 1 2 4 5 5 5 7 9 11 12 12 12 11 12 13 15 16 18 19 20 22 23 24 23 22 20 18 18 17 15 14 10 7 9 13 15 15 14 14 16 16 16 16 15 14 14 14 15 15 15 13 12 12 13 12 12 12
4 5 7 6 6 6 3 1 2 2 2 7 10 8 7 7 6 8 10 10 9 9 7 8 9 5 5 7 7 6 5 4 6 8 7 7 9 11 13 14 12 12 14 16 16 18 19 20 22 24 25 26 24 22 21 20 17 16 16 15 13 12 13 17 19 18 16 15 16 17 17 17 17 16 14 12 11 11 11 11 11 12 12 11 10 10 10
4 4 6 7 7 7 6 4 5 4 4 8 10 9 9 8 8 9 10 8 8 7 6 6 7 4 1 4 5 5 5 4 5 6 6 7 10 12 13 14 14 14 16 18 19 20 22 23 24 26 26 25 23 21 19 17 13 10 12 13 13 14 19 21 19 17 17 17 18 18 18 18 17 16 15 13 11 10 10 11 11 11 11 10 10 9 9
6 4 4 7 9 8 6 7 8 7 6 8 8 8 8 9 9 9 9 7 7 7 8 7 7 9 9 8 8 9 7 6 6 5 5 6 7 11 12 13 16 17 17 19 21 22 23 24 25 26 26 24 23 20 17 17 17 14 12 14 16 18 21 21 19 17 18 19 20 21 21 21 19 19 18 17 16 14 12 11 10 9 9 9 9 9 9
8 8 8 11 10 7 6 8 9 8 7 8 8 7 7 9 10 10 9 8 8 9 9 8 9 13 14 11 10 10 9 10 11 8 4 4 6 9 12 15 18 19 19 20 22 23 25 26 27 28 28 26 25 21 16 16 17 16 15 16 18 19 20 21 21 20 21 23 24 24 24 23 22 21 21 21 21 19 16 14 12 11 11 11 11 11 10
6 6 9 12 11 9 8 8 6 6 7 9 9 7 6 9 11 11 10 11 11 12 12 11 11 13 15 14 13 12 11 13 14 12 7 6 10 13 14 16 18 20 21 21 22 24 26 28 28 28 27 26 24 21 18 18 18 18 17 17 18 18 19 20 21 22 24 25 25 25 24 24 24 24 23 22 21 21 20 19 18 18 17 15 13 12 11
8 7 8 10 8 6 6 6 6 7 9 9 9 8 8 9 11 11 11 10 9 9 10 11 11 9 10 11 12 12 11 11 10 10 10 11 14 17 16 14 16 20 22 22 23 24 26 27 26 25 25 25 25 24 22 20 17 15 15 15 16 16 16 17 18 20 22 24 24 25 25 25 25 25 24 22 21 21 21 20 19 19 18 16 15 13 12
9 8 8 8 7 6 6 7 8 9 8 8 8 9 9 10 10 9 8 7 7 6 6 8 8 7 8 10 10 8 8 9 9 10 13 16 16 17 17 15 15 16 17 19 21 23 23 23 23 22 22 23 24 24 21 16 13 13 14 15 16 16 15 14 14 16 18 21 22 22 23 24 23 23 22 21 20 20 19 16 15 15 16 16 16 15 13
6 7 8 7 6 8 9 8 8 7 6 7 7 8 8 8 8 7 7 7 6 6 6 6 7 8 9 10 10 8 7 9 13 15 16 17 16 14 15 14 11 10 11 16 19 19 18 17 19 19 19 19 18 18 17 15 14 15 15 15 15 13 11 10 11 13 15 16 17 17 19 20 21 21 20 19 18 17 15 14 14 15 17 17 16 15 14
8 10 10 9 9 10 9 7 6 6 6 7 8 8 7 8 8 6 7 7 6 6 6 6 6 7 8 9 10 11 12 13 16 18 17 15 14 12 12 14 13 10 10 14 16 16 15 15 15 13 11 11 12 13 13 14 15 15 13 12 10 8 7 7 8 10 11 12 12 13 15 16 18 19 19 18 16 14 14 14 15 17 18 17 16 15 13
10 11 11 9 8 8 7 6 6 7 7 7 8 7 6 6 6 6 5 5 4 4 5 5 5 7 9 11 13 14 15 15 16 17 17 15 12 10 11 14 15 12 10 13 17 18 18 15 11 9 8 9 12 12 10 9 9 9 9 9 8 7 6 6 6 7 8 9 10 11 12 13 15 16 16 14 12 12 13 15 16 17 18 18 17 15 13
10 9 8 7 6 6 7 6 5 6 6 6 6 6 5 5 6 5 4 4 4 4 5 5 7 10 12 13 13 14 14 14 14 14 16 15 12 9 8 10 12 11 11 14 16 18 19 19 17 15 14 14 15 13 10 9 9 8 8 8 7 6 6 6 6 7 7 7 8 8 8 9 10 11 12 11 10 11 14 16 15 15 17 17 16 15 14
8 6 4 4 5 6 6 6 5 5 6 6 5 5 6 6 5 5 5 5 4 5 6 8 12 14 14 13 13 13 12 9 7 8 13 15 12 7 6 8 10 12 13 16 18 21 22 21 21 21 20 17 14 13 11 10 10 9 7 6 6 6 6 6 6 6 6 6 6 6 6 7 8 9 10 9 9 10 13 13 12 12 14 16 15 15 13
6 6 5 6 6 6 6 6 6 5 5 5 5 5 5 5 5 6 7 6 5 8 11 13 15 17 16 14 12 11 9 8 7 8 12 13 10 6 6 8 12 14 15 16 20 24 24 22 20 18 15 12 11 10 9 8 7 6 6 5 5 5 5 6 6 6 5 5 5 4 5 6 7 7 8 8 8 9 10 11 11 12 13 15 16 16 14
7 7 5 5 6 6 5 4 4 3 3 3 3 3 4 5 6 6 7 8 10 12 14 15 16 16 14 13 12 11 11 13 13 11 10 9 6 6 6 7 10 14 15 15 19 23 22 20 18 15 12 10 9 8 7 6 6 6 5 5 5 5 5 6 6 5 4 4 5 5 6 5 5 6 7 6 7 8 10 12 13 14 14 15 17 17 16
8 6 4 4 5 5 5 5 6 5 4 4 4 3 4 5 7 8 9 11 12 14 15 14 13 12 12 14 16 15 16 18 18 14 10 7 8 11 10 6 4 3 3 8 15 19 17 13 10 8 7 7 8 8 8 7 7 7 6 5 5 6 6 6 5 4 4 4 5 5 5 4 4 6 7 7 7 9 11 12 13 14 15 16 18 18 18
8 8 7 7 7 6 7 9 10 9 7 6 6 7 7 8 9 10 12 13 14 15 15 14 13 12 13 14 15 15 16 18 19 16 11 8 10 11 8 4 3 4 6 5 6 10 11 9 8 8 8 9 11 11 10 8 7 6 5 6 7 7 6 5 4 4 4 4 5 5 4 4 5 6 8 8 9 11 13 14 14 15 16 17 18 19 19
8 9 10 10 9 9 9 10 12 11 9 7 7 9 10 10 11 11 12 13 14 14 13 13 12 12 12 11 10 12 15 17 16 13 9 6 5 5 6 5 5 5 3 2 5 7 9 13 15 15 15 14 12 11 9 7 6 6 6 7 7 7 5 4 4 4 4 5 5 4 4 4 6 7 9 10 11 12 14 15 15 16 17 17 18 18 18
6 6 8 8 8 8 8 8 9 11 11 10 8 8 8 10 10 10 10 11 12 11 10 10 9 8 8 9 9 12 14 14 9 5 2 4 5 6 6 3 2 5 11 14 13 10 11 16 20 19 16 13 11 9 9 8 8 9 9 8 8 7 6 5 5 5 5 5 6 6 6 7 7 7 8 10 11 13 14 15 16 16 17 17 18 19 19
5 6 7 7 6 7 7 7 8 10 11 11 9 8 9 9 9 8 8 10 12 11 10 10 9 7 8 9 10 10 9 6 1 4 6 7 6 6 5 3 3 9 15 17 15 12 13 16 17 16 15 15 14 13 13 12 11 11 10 10 9 8 7 6 5 5 6 7 8 9 9 9 9 9 10 11 12 13 14 14 15 16 17 17 18 18 19
6 7 6 5 6 7 8 9 8 9 10 11 11 11 10 10 8 7 8 9 10 11 11 11 10 10 10 10 9 7 6 6 7 7 6 6 6 5 3 3 8 13 14 12 13 15 15 12 10 11 15 17 17 15 14 12 11 11 10 9 8 7 6 6 7 8 9 9 10 11 12 12 12 12 13 13 14 15 15 15 16 17 17 18 18 19 20
7 7 5 5 6 8 9 9 9 8 9 11 12 11 9 8 7 8 8 9 9 10 10 10 10 11 10 9 7 7 7 7 8 9 7 4 3 3 4 5 8 12 13 11 12 13 11 8 8 12 15 16 14 13 12 11 10 10 10 9 8 7 7 6 4 4 4 5 7 9 11 13 15 16 17 18 18 18 18 18 18 19 19 20 21 21 20
7 7 5 5 6 7 8 9 9 7 8 10 11 9 7 7 7 7 7 7 7 8 9 9 10 10 10 7 5 6 6 6 6 7 6 3 1 3 4 5 5 8 10 10 9 8 9 10 12 14 14 13 11 10 10 9 8 8 8 9 9 9 8 7 5 3 2 1 1 3 6 9 13 16 19 21 22 23 22 22 22 22 22 22 22 22 22
7 7 6 5 6 7 7 8 8 6 7 9 9 8 7 8 8 7 7 7 7 8 9 9 10 10 9 7 6 6 5 2 2 3 3 2 2 3 4 5 7 7 8 9 10 11 14 16 16 15 14 12 10 10 9 7 6 7 8 9 9 8 7 6 5 4 3 2 1 2 5 8 11 14 17 20 23 25 26 26 25 25 24 23 23 24 23
7 7 6 5 5 6 7 8 7 6 6 7 7 8 11 12 11 10 9 9 8 8 8 9 9 9 8 7 7 6 4 1 3 3 3 4 5 7 5 6 10 11 12 13 14 16 17 17 15 14 13 11 9 8 8 7 7 8 10 9 8 6 5 4 4 4 3 1 2 3 6 8 11 13 15 18 21 23 26 27 26 25 24 23 22 23 22
8 8 7 6 6 7 8 8 8 7 6 5 5 7 11 13 13 12 10 9 8 8 7 8 8 7 7 7 7 7 6 4 3 5 6 6 7 7 6 9 12 13 14 14 14 15 16 15 14 12 11 9 8 7 7 7 9 10 10 9 7 6 4 3 2 3 2 3 4 4 6 8 10 11 12 13 15 17 20 22 22 21 20 19 20 21 22
7 6 7 7 6 7 9 10 9 7 5 5 6 8 10 13 13 12 10 9 9 8 8 7 6 5 5 5 5 4 3 3 3 4 5 5 4 6 9 11 11 12 12 12 12 13 14 13 12 11 11 10 8 7 7 8 9 10 10 9 8 7 6 6 5 6 7 7 6 6 7 9 8 7 8 9 10 12 14 16 16 17 17 18 19 21 23
8 5 5 5 5 6 7 8 6 6 6 7 8 10 11 12 13 12 11 10 10 10 9 8 6 4 3 3 3 3 2 2 3 4 4 3 4 6 9 11 11 10 10 11 12 12 12 11 11 11 12 11 10 8 8 8 9 10 11 10 10 9 9 9 9 9 10 11 10 9 9 10 10 8 7 8 10 12 14 14 15 17 18 19 19 21 22
12 8 4 5 5 5 6 7 7 8 10 11 11 10 10 10 10 11 13 12 11 11 10 9 7 5 4 3 3 3 3 3 3 3 2 3 4 6 7 9 11 10 10 11 11 12 12 13 13 14 14 13 12 11 10 10 11 12 12 12 11 11 10 10 10 11 12 13 14 13 11 10 10 10 10 10 11 14 15 16 16 17 18 19 20 21 22
13 10 7 6 5 5 6 8 10 11 13 14 14 12 10 8 8 12 15 14 12 11 12 11 8 7 5 3 2 2 3 3 3 3 2 4 6 8 8 9 10 11 11 12 12 13 14 14 14 15 16 16 15 15 14 14 14 15 15 14 14 13 12 11 12 12 13 13 14 14 13 12 12 12 12 12 12 14 16 17 17 17 17 18 19 20 19
14 11 7 5 4 5 6 9 11 11 12 13 14 14 12 9 8 11 14 13 11 11 11 11 9 8 7 5 4 4 4 5 6 6 5 5 7 10 10 11 11 12 12 13 13 14 14 15 15 16 17 18 19 19 18 18 18 18 17 16 15 14 13 12 13 13 13 13 13 14 15 14 14 15 14 13 12 12 15 16 17 18 18 18 18 18 17
Wind_Direction
220 218 223 223 209 212 218 209 205 204 191 180 186 194 180 153 163 213 223 189 186 199 204 204 206 201 200 205 200 194 191 184 182 187 191 196 202 205 206 204 200 199 203 206 204 202 203 204 206 209 210 212 213 214 215 213 211 209 194 174 171 171 169 165 167 177 190 194 199 217 227 228 231 229 229 231 223 222 232 236 236 240 246 247 242 238 239
226 222 230 231 225 231 238 232 221 208 191 188 195 197 178 173 190 201 179 182 197 202 198 204 207 197 191 191 174 162 170 177 179 182 188 196 202 204 206 204 200 203 208 210 206 203 204 205 206 209 210 211 213 214 214 213 210 200 178 169 174 175 172 172 172 174 180 186 197 215 225 227 226 224 230 238 233 229 233 236 239 243 246 241 234 232 235
237 224 226 232 227 229 235 238 233 218 199 193 193 182 168 182 203 161 152 178 211 226 202 191 180 136 120 133 157 174 185 185 179 180 189 198 201 202 202 200 200 208 210 202 194 195 203 209 210 211 212 213 213 214 213 211 204 185 173 175 177 174 171 169 164 164 173 185 198 214 223 224 220 220 232 240 238 237 237 237 240 244 241 232 228 230 236
235 223 220 229 228 229 241 246 240 225 198 186 187 163 165 177 164 112 121 173 221 232 140 92 86 124 156 180 185 184 185 182 178 184 190 194 196 195 192 191 193 198 194 183 184 190 199 207 211 214 216 215 214 214 212 205 190 176 175 175 171 166 166 164 162 166 178 188 198 210 217 216 213 219 231 237 238 240 239 238 240 240 234 228 228 234 243
234 229 206 206 199 211 245 249 228 203 176 158 145 133 170 169 146 138 161 206 221 201 147 132 135 159 181 206 207 184 162 155 165 181 187 187 190 187 179 178 181 187 192 191 194 197 197 203 209 212 212 209 208 208 203 191 179 175 175 172 167 165 165 167 169 174 182 193 204 211 214 211 212 220 231 235 237 241 240 238 239 235 230 228 232 240 248
225 228 166 154 161 196 233 259 221 172 152 133 118 95 36 2 96 171 194 203 179 157 157 162 162 167 176 185 195 175 151 141 144 164 182 182 183 181 177 181 188 190 189 189 196 202 205 208 211 209 206 203 201 198 192 185 179 176 175 174 173 170 168 169 174 178 184 194 205 211 213 212 212 220 230 235 238 242 240 238 236 232 229 230 235 243 249
194 169 126 149 198 222 243 318 331 131 121 113 100 74 43 15 349 326 346 201 182 172 173 168 157 156 159 151 147 156 162 155 146 153 179 183 174 175 183 190 193 186 175 172 180 192 201 205 202 197 195 193 191 188 186 183 179 176 176 175 173 172 170 170 178 184 188 196 205 209 211 212 214 223 234 237 237 240 240 237 235 233 231 231 237 243 249
159 137 142 181 214 261 330 11 1 3 92 106 95 57 10 5 10 3 343 295 191 161 145 140 138 139 138 126 125 160 172 163 149 155 172 179 174 178 183 185 185 183 187 187 181 181 185 187 185 185 186 186 183 182 182 181 178 175 174 173 172 175 176 177 184 190 192 199 205 207 206 210 222 236 243 240 236 237 240 238 235 234 232 233 238 245 252
153 132 137 174 95 6 347 357 342 316 304 172 117 92 342 333 23 23 356 67 94 102 105 112 119 118 108 84 41 346 206 186 176 165 164 164 167 174 175 181 199 206 205 194 182 177 176 178 181 183 182 181 178 175 175 177 175 173 174 176 177 179 180 183 190 194 195 197 198 201 207 213 224 238 243 239 236 237 238 237 235 232 233 235 240 248 254
109 106 112 98 74 85 249 272 279 283 302 287 125 102 12 316 17 22 342 129 118 111 112 126 133 116 99 94 38 298 308 154 143 119 110 123 131 139 140 138 165 195 193 183 178 177 174 176 183 183 179 176 173 170 171 173 174 176 179 181 182 182 182 186 192 197 197 191 188 196 209 217 228 240 242 237 236 237 236 236 235 234 235 239 243 250 256
63 103 127 134 124 214 242 273 289 301 312 299 38 97 166 285 353 15 61 124 120 119 123 137 127 105 105 135 221 286 323 59 114 119 116 114 114 122 136 146 156 168 173 171 169 171 174 178 182 182 178 174 170 169 173 176 178 181 184 185 186 186 188 190 195 197 193 185 187 199 210 218 231 241 240 237 239 239 237 237 236 237 238 239 243 248 250
51 94 101 122 141 239 258 269 285 294 307 19 75 104 221 283 341 344 121 108 101 100 96 86 78 90 137 180 241 314 15 41 47 82 104 117 123 124 134 153 163 166 166 163 163 174 183 183 181 179 176 173 172 173 177 180 183 187 188 190 192 192 191 192 193 192 185 183 191 203 211 220 234 242 242 243 244 243 239 237 237 239 240 238 236 234 228
17 77 94 104 196 247 267 283 288 294 345 65 91 177 231 333 0 338 114 110 113 100 85 79 75 86 153 165 132 31 57 55 37 45 63 77 93 109 132 158 165 164 165 168 172 183 189 183 178 177 176 174 175 178 180 185 189 192 193 194 194 192 191 191 189 188 185 187 194 203 213 226 239 242 241 242 243 242 243 244 244 243 237 225 216 211 213
11 72 93 36 298 262 295 311 306 311 68 96 163 206 207 32 12 2 83 95 99 92 84 86 94 93 94 93 79 63 66 68 57 48 49 58 70 88 124 157 166 164 169 177 177 182 187 183 180 180 179 178 180 181 181 186 192 194 194 193 192 192 191 189 187 187 188 190 196 205 218 229 234 234 232 230 230 233 238 241 242 234 212 192 192 201 218
46 56 59 54 219 266 314 331 329 358 87 155 190 128 56 40 13 12 60 79 82 84 81 72 75 77 64 62 71 70 66 70 71 58 47 48 59 95 146 175 184 180 180 182 177 179 184 184 184 184 181 179 174 167 168 183 192 194 192 190 191 191 189 190 191 190 190 193 201 214 226 231 235 237 234 229 230 233 234 234 228 205 180 176 189 210 233
72 85 93 197 217 281 319 0 58 35 54 122 121 87 65 49 37 30 38 48 60 84 92 83 73 74 64 52 62 68 63 67 79 81 74 70 88 188 203 204 201 195 189 184 179 180 183 183 184 186 180 166 148 144 156 180 189 191 192 191 190 189 188 190 192 195 200 206 214 225 237 246 250 249 242 237 237 237 236 234 219 186 175 189 205 219 233
150 148 195 251 269 302 332 58 94 82 70 74 86 93 87 62 54 55 52 41 33 67 96 94 81 86 95 82 71 79 80 67 88 130 145 149 164 204 232 223 212 209 204 193 182 176 177 177 176 175 170 156 147 148 159 173 178 182 185 186 184 184 186 188 193 203 213 219 232 247 253 253 252 248 243 239 237 233 229 226 209 182 179 202 215 219 227
147 88 32 349 1 357 29 75 89 87 81 78 80 87 86 79 76 79 73 55 28 36 73 82 68 71 106 107 102 122 142 155 192 172 127 124 146 187 226 224 219 216 209 197 183 166 158 162 163 159 158 158 154 154 164 171 173 173 173 172 175 180 190 203 213 220 227 237 250 256 255 252 248 247 245 239 231 223 218 213 198 181 192 218 225 224 227
132 81 325 348 16 4 23 73 93 95 92 94 88 83 87 90 85 82 79 71 54 42 52 66 62 31 40 93 113 147 155 145 143 54 44 43 189 210 225 226 221 212 203 195 180 155 142 147 150 144 142 144 144 147 162 175 179 179 178 179 183 190 200 209 215 217 221 237 251 256 257 256 250 247 245 237 226 220 215 208 197 193 210 229 234 231 226
105 128 194 28 37 12 355 28 76 92 93 97 97 100 108 102 87 79 71 62 57 50 47 53 50 14 352 17 105 100 70 63 41 27 3 293 252 233 231 226 215 209 205 192 164 140 138 146 147 140 134 131 130 134 139 148 159 163 166 173 177 180 185 186 196 220 231 246 263 266 263 256 247 238 233 228 222 218 213 208 206 208 218 225 225 222 218
84 106 156 140 76 39 1 1 24 41 66 85 89 93 99 97 93 88 76 63 51 50 51 48 40 22 358 340 338 8 50 57 351 233 232 237 229 220 219 215 208 204 194 171 149 141 144 151 151 146 141 137 134 131 129 130 131 124 117 126 144 157 161 146 163 233 251 259 261 255 244 232 221 210 205 205 206 206 208 211 216 225 232 228 219 213 209
139 156 164 151 121 100 32 326 16 18 51 82 78 68 67 79 89 90 86 79 62 51 49 48 43 27 0 343 333 318 280 210 214 216 212 209 204 201 201 201 201 193 176 161 151 150 154 156 154 150 146 140 135 132 130 129 123 113 112 124 136 146 171 189 196 216 237 244 239 232 221 208 198 191 187 190 195 200 208 215 218 218 220 217 208 200 200
163 159 142 141 127 122 145 159 29 5 41 78 78 71 68 73 77 81 84 81 71 62 56 61 68 49 335 333 328 302 281 250 225 218 207 192 189 191 189 185 182 174 165 161 158 158 161 158 152 148 146 142 140 140 138 132 122 119 132 149 155 165 195 211 215 222 232 233 226 219 211 202 194 186 180 183 193 199 202 203 199 195 195 194 194 198 204
89 98 122 128 112 105 113 104 79 53 56 77 81 76 73 72 67 71 75 75 79 83 74 72 88 100 8 0 358 337 314 291 265 248 237 216 198 191 186 180 174 168 166 166 164 163 162 156 150 148 147 147 148 148 147 151 161 171 177 185 193 203 214 223 228 230 227 223 217 210 202 195 191 188 184 179 176 180 184 185 185 187 190 192 195 199 202
95 88 98 102 101 104 107 92 73 51 48 71 76 68 70 75 73 75 78 76 76 76 66 55 47 36 28 24 16 8 349 320 308 286 255 236 207 191 186 184 180 175 173 172 169 164 160 156 152 151 151 153 157 158 163 180 195 204 206 206 210 216 221 224 225 222 216 212 208 203 199 196 195 195 194 188 179 173 172 174 178 183 187 189 189 187 185
106 112 95 80 74 71 72 68 54 36 38 61 69 61 58 67 70 71 72 71 65 59 56 49 31 24 25 23 15 11 3 348 340 324 275 241 223 205 198 196 190 182 177 174 169 164 161 159 157 157 161 167 171 173 183 202 211 217 223 222 219 219 220 217 212 208 206 205 204 204 203 203 202 202 202 199 191 181 172 168 169 172 175 176 177 175 171
77 96 92 81 62 44 52 68 61 40 41 51 59 59 57 64 66 60 55 56 55 54 52 44 31 25 22 16 10 8 6 5 359 345 318 273 248 237 224 208 194 184 179 174 170 167 166 165 166 169 176 184 188 195 212 229 234 233 230 226 222 223 224 220 214 209 207 207 207 207 208 209 209 207 204 201 197 191 186 181 177 172 169 167 166 165 161
52 50 72 91 96 85 81 85 71 53 44 42 45 48 48 50 50 45 41 38 37 45 51 43 35 32 20 10 9 4 357 359 0 347 328 301 272 258 248 227 201 189 184 179 173 172 172 174 178 185 193 199 204 212 225 235 238 233 229 225 221 218 218 217 215 213 213 213 213 214 214 214 213 211 207 203 200 198 196 191 181 169 163 162 161 159 157
58 58 65 86 109 116 96 71 55 49 44 40 41 44 44 45 42 35 31 27 20 22 26 21 23 28 19 12 14 8 351 345 340 330 324 316 297 272 253 238 218 199 189 184 182 183 185 186 188 194 201 206 211 218 225 228 223 213 207 203 200 198 197 202 208 212 214 215 216 218 219 218 216 214 210 206 203 201 196 185 170 164 165 166 164 161 160
62 70 73 71 74 77 70 57 50 50 44 41 47 47 45 48 45 28 15 15 16 12 6 2 10 19 16 12 10 5 350 337 328 322 321 320 309 282 252 232 212 193 192 195 195 193 191 190 194 200 205 208 210 212 209 200 190 186 184 183 185 187 188 195 203 207 209 212 214 217 219 219 219 215 209 205 204 200 187 171 168 176 179 175 171 170 171
69 63 62 57 56 60 59 49 44 41 31 33 41 37 32 38 37 19 6 7 6 3 3 5 11 14 7 358 355 357 357 351 340 331 324 317 307 286 253 222 202 196 201 196 189 186 186 188 191 195 196 190 183 179 178 178 177 178 179 179 179 177 178 187 198 205 210 214 216 216 215 215 214 211 207 205 202 193 180 174 180 185 183 178 180 183 182
71 56 48 43 45 51 49 40 37 30 20 23 30 24 18 24 19 1 354 354 346 351 7 12 7 358 350 345 348 353 355 352 345 337 327 316 305 290 257 224 210 208 205 191 184 183 179 165 142 120 118 137 150 152 158 175 185 184 180 176 171 168 175 190 199 203 209 215 216 213 210 209 208 206 203 199 193 185 183 185 187 186 184 185 188 187 185
67 57 39 30 37 44 39 33 35 30 20 19 18 8 1 9 7 354 346 345 347 1 13 3 346 342 342 342 344 346 346 345 344 340 331 319 304 287 261 228 209 201 193 186 182 174 162 146 137 143 157 166 166 167 177 200 210 203 187 173 166 169 184 198 205 206 209 214 216 214 210 204 197 190 183 179 184 195 199 196 191 186 188 192 192 189 189
71 77 56 35 39 41 33 23 22 21 16 11 11 10 8 5 359 351 349 356 6 1 348 337 334 335 337 336 334 333 336 339 335 327 323 316 301 274 237 208 191 184 180 177 173 170 167 164 165 170 176 179 180 185 199 211 210 199 183 170 169 180 191 199 205 208 211 216 218 216 206 189 180 180 184 191 203 210 205 197 191 188 191 194 195 191 190
64 67 52 38 35 33 31 26 17 12 14 11 4 0 357 352 351 352 351 347 340 331 328 327 328 328 328 327 325 325 324 317 304 303 310 309 293 257 212 178 163 160 163 168 170 171 170 168 165 164 167 176 182 186 191 194 188 180 174 170 173 183 195 204 209 213 218 219 211 192 174 169 176 190 203 213 218 213 198 187 187 193 197 198 198 195 193
34 37 33 27 23 20 23 22 10 8 25 16 341 327 337 342 342 340 333 325 320 320 323 325 326 325 324 322 319 316 310 303 297 295 299 295 264 223 210 193 171 161 159 165 172 171 167 164 162 160 164 175 178 169 159 158 158 156 155 159 167 183 195 201 203 205 205 202 189 170 161 170 194 211 220 223 220 210 198 191 194 201 204 204 201 199 198
21 26 22 9 7 7 3 357 353 353 355 344 328 320 325 329 330 331 331 327 325 325 327 327 324 320 316 315 313 311 308 303 296 288 280 262 220 201 198 209 218 195 182 188 183 174 164 158 161 162 165 169 161 146 137 141 144 142 145 158 175 185 183 175 168 173 184 187 184 174 172 190 222 238 247 248 234 215 204 200 202 206 208 207 205 202 201
15 18 13 0 357 357 351 347 351 355 352 344 335 329 325 327 335 341 340 336 336 336 333 329 323 317 313 313 312 310 309 306 298 285 269 243 213 194 172 133 74 30 352 301 218 169 150 156 177 181 168 151 138 130 130 135 138 142 156 171 177 176 172 166 169 186 197 194 188 183 186 200 216 223 226 228 222 214 209 208 211 214 213 210 207 205 203
11 10 6 360 358 356 351 349 351 351 346 338 326 323 328 339 347 346 342 341 342 342 335 329 327 325 322 321 317 311 311 310 300 285 268 238 199 154 119 116 132 124 117 187 198 169 158 163 163 155 146 139 134 133 138 144 148 158 169 173 173 174 176 184 196 204 203 195 191 191 197 205 211 214 214 215 216 215 212 212 216 221 219 214 210 210 208
3 358 357 356 353 349 346 345 341 337 337 338 334 331 338 346 346 342 340 338 339 342 342 338 335 332 328 325 318 310 312 313 301 268 201 143 130 115 102 110 165 151 149 158 164 167 171 165 153 143 140 142 144 147 153 156 157 162 167 170 173 177 180 185 192 201 207 208 211 218 222 219 217 216 215 216 217 216 213 212 216 221 222 221 220 219 216
351 345 348 351 349 343 339 335 330 329 334 341 346 346 347 346 340 334 332 332 338 348 358 357 351 344 337 334 327 315 314 320 292 164 143 129 125 116 99 100 153 154 152 150 145 144 153 153 144 138 142 147 148 150 153 152 152 159 169 178 184 185 188 193 200 209 216 219 223 228 233 234 233 228 222 220 221 220 217 215 217 220 223 224 226 225 221
343 341 343 347 345 341 338 336 332 328 329 337 343 345 345 346 345 340 337 342 349 355 358 359 359 355 350 351 354 357 11 46 82 105 116 122 127 125 125 159 161 155 151 145 140 142 148 148 143 147 153 152 150 148 145 142 142 147 154 164 174 183 193 207 218 225 230 232 235 238 242 246 247 244 240 235 232 230 227 223 221 221 224 226 227 228 225
336 336 336 335 337 340 340 338 334 327 324 332 341 344 345 354 2 359 354 356 359 355 353 356 359 358 358 6 21 33 38 55 80 95 101 111 144 177 199 190 166 156 158 160 156 155 164 179 182 170 159 151 146 144 142 139 137 135 135 140 146 150 157 168 184 209 230 242 249 251 254 256 256 256 254 250 246 243 239 234 229 227 228 228 228 227 226
328 331 327 322 332 342 343 338 336 330 323 328 337 342 348 358 5 5 2 3 359 352 349 350 350 352 358 11 33 39 33 39 69 86 84 67 301 244 233 221 191 172 173 177 178 179 184 182 173 163 155 150 150 151 148 142 137 137 143 148 146 142 140 139 135 135 141 162 276 278 277 275 271 266 262 258 254 250 246 241 238 234 232 230 229 227 225
322 328 327 326 339 349 347 338 333 327 323 330 341 352 357 358 359 359 0 360 354 350 349 348 345 347 356 11 29 39 37 31 49 69 73 65 333 303 261 219 203 197 196 198 196 187 175 168 163 160 159 159 159 159 158 156 156 158 159 157 153 149 146 144 144 145 134 102 29 312 304 300 292 281 271 262 257 252 248 244 242 240 235 231 228 224 221
321 325 329 333 341 346 345 339 332 332 342 354 1 2 2 2 1 359 357 356 352 348 346 344 344 347 354 3 16 24 25 338 279 269 248 245 283 300 275 211 196 197 195 191 185 177 170 167 167 166 166 167 169 171 173 178 178 173 168 167 167 165 156 148 151 153 137 80 354 323 317 315 310 301 288 273 262 255 249 246 244 243 239 234 229 223 218
323 322 323 327 334 343 351 350 344 347 2 12 357 347 355 1 0 357 355 354 350 346 345 343 344 348 352 358 4 10 12 3 322 282 268 268 278 276 242 209 202 201 196 189 182 177 174 174 174 173 173 178 181 179 179 182 182 181 182 184 185 184 182 189 203 211 234 277 300 306 306 308 316 322 315 296 277 261 251 245 241 237 234 232 228 221 214
322 314 311 316 325 337 346 346 340 337 347 352 343 342 351 355 353 352 355 355 350 350 356 358 351 342 338 341 349 357 3 359 332 306 301 295 266 223 202 199 203 204 199 194 190 186 184 183 183 181 184 189 189 185 184 186 188 192 196 200 203 210 221 235 243 247 252 259 267 277 282 285 295 318 326 309 285 264 250 242 235 230 230 232 227 218 213
341 334 308 293 297 316 330 334 327 315 320 332 340 345 348 347 344 344 348 347 342 343 351 359 3 358 337 317 308 303 295 283 287 304 311 292 235 205 196 196 199 201 200 199 197 196 197 198 195 193 196 199 199 197 198 200 204 209 214 218 224 231 236 242 248 253 255 256 257 259 264 271 277 287 296 290 273 259 250 245 239 236 237 236 227 217 213
345 346 315 270 264 284 300 299 293 299 309 318 324 332 340 341 334 328 329 331 330 327 329 337 350 0 356 329 295 283 275 268 276 294 293 244 224 219 210 204 206 210 211 209 208 208 209 208 206 205 209 211 212 214 219 221 221 223 226 229 231 234 238 245 252 255 254 253 252 252 255 264 275 282 285 281 269 256 248 244 240 238 236 232 224 217 216
330 325 304 278 263 265 275 279 283 294 305 310 312 314 319 320 312 310 313 317 317 313 313 319 331 345 349 338 299 269 258 248 252 264 250 221 223 228 227 222 223 226 226 224 222 220 218 217 216 216 219 222 224 226 228 228 226 226 228 231 235 240 247 258 267 267 260 253 250 250 253 259 266 271 274 277 273 261 249 240 233 228 224 220 217 216 216
329 320 303 286 277 274 274 277 283 291 302 308 309 308 307 303 298 300 306 308 306 301 298 298 303 312 315 307 285 269 259 244 238 242 243 233 229 231 233 235 239 240 237 235 233 230 229 229 230 229 229 231 232 231 230 229 227 225 227 231 237 241 247 255 263 265 262 256 252 252 253 255 259 261 262 265 268 264 254 243 233 225 220 218 217 216 215